星链-30523 (STARLINK-30523 )

导读

STARLINK-30523是美国SpaceX星链星座中的卫星,属于第111批星链6-21任务,于2023年10月5日在卡纳维拉尔角由猎鹰九号火箭成功发射。它属于星链V2 Mini版本,通信能力更强,采用氩霍尔电推进系统,旨在为全球提供高速宽带互联网服务,目前在轨稳定运行,是星链全球组网的重要组成部分,进一步推动了低轨卫星互联网的覆盖进程。

基本信息
目录编号:
57997
目录名称:
STARLINK-30523
国际标识:
2023-153G
轨道中心:
EARTH
卫星名称:
星链-30523
卫星全名:
星链-30523 (STARLINK-30523 )
卫星状态:
在轨 (已飞行1065 天)
发射日期:
2023-10-05 UTC
国别 :
美国 (US)
星等 :
--
轨道信息
数据来源 国际轨道数据
星历时间: 2026-09-04T07:33:53+0800
15小时前
查看轨道信息
半长轴: 6861.214km
偏心率: 0.0001616
轨道倾角: 43.001°
近地点辐角 251.566°
升交点赤经 140.171°
平近点角 108.501°
近地点: 481.968km
远地点: 484.186km
周期: 94.267分钟
每日圈数: 15.275709
详细信息
固有亮度:
5
最大亮度:
0.3
卫星平台:
Starlink v2.0 mini
覆盖范围:
全球
运营商:
太空探索技术公司
运营商所在国:
美国
制造商(研发单位):
太空探索技术公司
制造商所在国:
美国
使用方式:
暂无
卫星简介
星链(Starlink)计划是由太空探索技术公司(SpaceX)提出的一个巨型低轨卫星互联网星座项目,计划在2019年至2024年间在太空搭建由约1.2万颗卫星组成的“星链”网络,其中1584颗将部署在地球上空550千米处的近地轨道,并从2020年开始工作。该卫星仍在工作。
2D轨道图
3D轨道图
轨道高度分析图
轨道倾角分析图
轨道综合分析图
查看轨道综合分析图
交会数据列表
事件ID 空间交会对象 最接近时刻(TCA) 交会距离 交会风险概率(CRP) 交会风险指数(CRI) 操作
CDM_260905-180305-799706-256921
2026-09-05T
18:03:56+0000
0.931 km
远距离
2.550928E-5 中风险 0.63
CDM_260906-041505-799706-256921
2026-09-06T
04:15:55+0000
1.411 km
极远距离
6.099899E-6 低风险 0.51
CDM_260904-040905-320705-799721
2026-09-04T
04:09:43+0000
1.654 km
极远距离
4.783615E-6 低风险 0.49
CDM_260829-182405-799705-864522
2026-08-29T
18:24:01+0000
1.649 km
极远距离
4.172905E-6 低风险 0.47
CDM_260906-024105-799706-256921
2026-09-06T
02:41:46+0000
2.979 km
极远距离
1.05531E-6 低风险 0.35